HULIANWANG DIGUI-32

Satellite information

Favourite Embed

Satellite Type and Status

PAYLOADIN ORBIT

Key statistics

Satellite HULIANWANG DIGUI-32 at a glance.

Uptime

191

Days in orbit

Revolutions

≈ 13.2

Per day

Orbit

LEO

Low Earth Orbit

Inclination

86.5

Latest

Satellite identification and parameters

Extended collection of information and parameters for HULIANWANG DIGUI-32.

Object identification

Identified? True

Debris? False

Object name: HULIANWANG DIGUI-32

International designator: 2025-121C

Object number (NORAD): 64285

Object ID (CCSDS): 64285

Country: PEOPLES REPUBLIC OF CHINA (PRC)

Current information (Y/N): Y

RCS size: LARGE

Orbital parameters

Period: 108.727 minutes

Inclination: 86.493 deg

SMA: 7546.027 km

Apoapsis: 1168.981 km

Periapsis: 1166.803 km

RAAN: 76.5821 deg

Eccentricy: 0.00014434

Argument of periapsis: 110.3438 deg

Mean anomaly: 249.7851 deg

Mean motion: 13.24418457 rev/day

Mean motion (dot): 0.00000064 rev/day2

B* drag term: 0.00011604701 1/REarth

Two-line elements (TLE)

Creation date: Dec. 12, 2025, 10:14 a.m.

Reference frame: TEME

Reference center: EARTH

Epoch: Dec. 12, 2025, 5:56 a.m. UTC

TLE line 0: 0 HULIANWANG DIGUI-32

TLE line 1: 1 64285U 25121C 25346.24729004 .00000064 00000-0 11605-3 0 9990

TLE line 2: 2 64285 86.4930 76.5821 0001443 110.3438 249.7851 13.24418457 25415

Live tracking on map

Real-time ground track for satellite HULIANWANG DIGUI-32.

In-orbit conjunctions

There are no conjunctions computed for HULIANWANG DIGUI-32, at the moment. Check back to stay up to date, as we update our databases every day.

Go to all conjunctions

Associated space launch

A batch of 5 Low Earth Orbit communication satellites for the Chinese state owned SatNet constellation operated by the China Satellite Network Group. The constellation will eventually consists of 13000 satellites.

HULIANWANG DIGUI-32 was lifted into orbit during the mission ‘Long March 6A | SatNet LEO Group 04’, on board a Long March 6A space rocket.

The launch took place on June 5, 2025, 8:45 p.m. from Launch Complex 9A.

For more information about the launch, click the button.

Launch to space Long March 6A | SatNet LEO Group 04
Long March 6A | SatNet LEO Group 04

Agency: N/A

Status: Launch Successful

Launch date: June 5, 2025, 8:45 p.m. UTC

Rocket: Long March 6A

Launch pad: Launch Complex 9A

Location: Taiyuan Satellite Launch Center, People's Republic of China

...

Latest news about this satellite

News about space launch
China launches fourth group of Guowang megaconstellation satellites

China launched a fourth group of satellites for its Guowang low Earth orbit megaconstellation Thursday, but released few details about the payload or objectives. The post China launches fourth group of Guowang megaconstellation satellites appeared first ...


Newsletter sign-up

Weekly statistics, charts and insights to help you stay on top of the space industry.